DMSP 5D-2 F13 DEB, 40681

Orbit data source: Space-Track

DMSP 5D-2 F13 DEB, 40681 is space debris in SSO originally from a launch on Fri, 24 Mar 1995 UTC launched from the Air Force Western Test Range (AFWTR). Debris objects in space refer to the collection of defunct objects orbiting the Earth. Examples of debris include non-operational satellites, rocket bodies, and fragments generated from explosions, collisions, or faulty payload assembly.

Loading next visibility...
Identifier
40681, 1995-015FV
Orbit
SSO
Country
Flag of USUS
Related business
Manufacturer
Unknown
Mission
Spacecraft
Bus & Motor
Unknown
Mass
Unknown
Launch date (UTC)
1995-03-24 (31 years ago)
Launch vehicle
Unknown
Launch site
Air Force Western Test Range (AFWTR)
Object type
Payload
Rocket body
Debris
Shape & HBR
Unknown shape, 0.1 m
Radar Cross Section
Small (<0.1 m²)

Expand to show TLE details & history
Last TLE update: 2 days ago

TLE from 2 days ago
0 DMSP 5D-2 F13 DEB
1 40681U 95015FV  25294.52423650  .00006564  00000-0  23116-2 0  9994
2 40681  98.7199 323.0433 0005493  67.1575 293.0189 14.35147218546456
Epoch: 2025-10-21T12:34Z
TLE epoch observation values (Epoch: 2025-10-21T12:34:54.033Z)
Latitude
-0.00007°
Longitude
104.10721°
Altitude
775.977 km
Speed
7.467 km/s
True Right ascension
21h 32m 10s
True Declination
0° 00' 00"
Sunlit
Object was in daylight at epoch
Visualization orbit readout
Latitude
Unknown
Longitude
Unknown
Altitude
Unknown
Speed
Unknown
Apparent Right ascension
Unknown
Apparent Declination
Unknown
Sunlit
N/A
Visualization observer readout
Local Sidereal Time
08:58:11
Azimuth
Unknown
Elevation
Unknown
Doppler factor
Unknown
Orbital elements
Apogee altitude
775.643 km
Perigee altitude
767.789 km
Semi-major axis
7,149.853 km
Eccentricity
0.00055
Inclination
98.7199°
RAAN
323.0433°
Arg. of periapsis
67.1575°
True anomaly
292.96095°
Mean anomaly
293.0189°
Eccentric anomaly
292.98993°
Mean motion
3.59003 °/min
Orbital period
100.28 mins
BSTAR
0.0023116

Documentation

Showing up to 5 results
|